Location: Unspecified
(0.0000°N, 0.0000°E)
Time: 08:34:40
(UTC+00:00)

X-37B - Pass Details

Date: 29 September 2023
Orbit: 277 x 277 km, 45.0° (Epoch: 01 November)

Event Time Altitude Azimuth Distance (km) Brightness Sun altitude
Rises 18:49:05 0° 208° (SSW) 1,908 4.5 -14.7°
Reaches altitude 10° 18:51:08 10° 195° (SSW) 1,094 3.1 -15.2°
Enters shadow 18:52:36 23° 164° (SSE) 636 1.5 -15.6°
